Location: Oak Glen
(34.0495°N, 116.9470°E)
Time: 16:14:11
(UTC-07:00)

Tiangong 1 - Pass Details

Date: 12 October 2017
Orbit: 292 x 320 km, 42.8° (Epoch: 21 October)

Event Time Altitude Azimuth Distance (km) Brightness Sun altitude
Rises 03:04:54 0° 300° (WNW) 2,041 5.8 -5.5°
Reaches altitude 10° 03:07:39 10° 331° (NNW) 1,204 3.9 -6.1°
Maximum altitude 03:09:00 13° 1° (N) 1,054 3.2 -6.3°
Drops below altitude 10° 03:10:21 10° 31° (NNE) 1,195 3.2 -6.6°
Enters shadow 03:11:34 - 50° (NE) 1,514 3.6 -6.9°
